Regional Weather Roundup
Issued by NWS

Home | Current Version | Previous Version | Text Only | Print | Product List | Glossary On
Versions: 1 2 3 4 5 6 7 8 9 10 11 12 13 14 15 16 17 18 19 20 21 22 23 24 25 26 27 28 29 30 31 32 33 34 35 36 37 38 39 40 41 42 43 44 45 46 47 48 49 50
000
ASUS43 KMPX 281801
RWRMN
WEATHER ROUNDUP FOR MINNESOTA
NATIONAL WEATHER SERVICE TWIN CITIES/CHANHASSEN MN
100 PM CDT THU APR 28 2016


NOTE: "FAIR" INDICATES FEW OR NO CLOUDS BELOW 12,000 FEET WITH NO
SIGNIFICANT WEATHER AND/OR OBSTRUCTIONS TO VISIBILITY. N/A MEANS
CURRENT SKY AND/OR WEATHER CONDITIONS ARE NOT AVAILABLE.

MNZ060>063-068>070-281900-
   Twin Cities Metro

CITY           SKY/WX    TMP DP  RH WIND       PRES   REMARKS
TWIN CITIES    CLOUDY    42  35  76 NE14      30.00S
6HR MIN TEMP:  37; 6HR MAX TEMP:  42; 6HR PCP:  0.18;

ST PAUL        CLOUDY    41  35  79 E13       30.02S
CRYSTAL        LGT RAIN  42  36  79 E12       30.00R
BLAINE         CLOUDY    43  37  81 E13       30.01R
EDEN PRAIRIE   CLOUDY    42  35  76 NE14G21   29.98S
6HR MIN TEMP:  38; 6HR MAX TEMP:  42; 6HR PCP:  0.23;

SOUTH ST PAUL  CLOUDY    41  37  86 NE9       29.99F
LAKE ELMO      DRIZZLE   41  36  81 E12       30.02S
$$
MNZ001>005-007-008-013>017-022>024-027-028-281900-
   Northwest Minnesota

CITY           SKY/WX    TMP DP  RH WIND       PRES   REMARKS
BEMIDJI        PTSUNNY   51  20  29 E16G23    30.08F
HALLOCK        PTSUNNY   54   9  16 NE13G18   30.16F
ROSEAU         CLOUDY    50  21  32 E17       30.16F
WARROAD          N/A     46  25  42 NE13G18   30.19S
THIEF RVR FALL CLOUDY    52  19  28 NE17      30.13F
CROOKSTON      CLOUDY    54  18  24 E15G21    30.13S
FOSSTON        MOSUNNY   54  25  32 NE10G17   30.09F
DETROIT LAKES  CLOUDY    50  19  29 E10       30.06S
MOORHEAD       CLOUDY    54  19  26 NE15G21   30.07S
PARK RAPIDS    CLOUDY    51  19  28 NE14      30.05S
MAHNOMEN       MOCLDY    49  20  31 E13       30.07S
$$
MNZ006-009>011-018-025>026-281900-
   North Central Minnesota

CITY           SKY/WX    TMP DP  RH WIND       PRES   REMARKS
BAUDETTE       CLOUDY    52  20  28 NE12      30.15S
FLAG ISLAND    CLOUDY    46  14  27 N16       30.18F
INTL FALLS     CLOUDY    49  22  34 NE10G20   30.15S
6HR MIN TEMP:  35; 6HR MAX TEMP:  49;

WASKISH        CLOUDY    52  25  35 E12       30.12F
BIG FORK       MOSUNNY   52  19  28 NE10G18   30.10S
LONGVILLE      PTSUNNY   54  19  26 NE8       30.06S
GRAND RAPIDS   MOSUNNY   50  21  32 E14G22    30.09S
CRANE LAKE     CLOUDY    48  19  32 NE6       30.15F
ORR            PTSUNNY   50  14  23 CALM      30.10S
COOK           MOSUNNY   48  21  34 NE9       30.12S
WALKER         FAIR      47  22  37 E9        30.07F
$$
MNZ012-019>021-037-281900-
   Northeast Minnesota

CITY           SKY/WX    TMP DP  RH WIND       PRES   REMARKS
DULUTH         CLOUDY    49  22  34 E24G32    30.08S
6HR MIN TEMP:  37; 6HR MAX TEMP:  49;

ELY            MOSUNNY   48  21  34 N7        30.11S
HIBBING        SUNNY     51  22  31 NE14      30.08F
EVELETH        MOSUNNY   52  21  30 NE9       30.10S
DULUTH HARBOR  MOSUNNY   39  34  81 NE24      30.10S
TWO HARBORS    PTSUNNY   46  28  49 E12       30.10S
SILVER BAY     MOSUNNY   46  21  36 NE17      30.12R
GRAND MARAIS     N/A     40  30  67 NE10G20   30.15R
G MARAIS ARPRT SUNNY     46  21  36 N8        30.11F
$$
MNZ029>031-032-039>041-046>048-054>057-064-281900-
   West Central Minnesota

CITY           SKY/WX    TMP DP  RH WIND       PRES   REMARKS
FERGUS FALLS   PTSUNNY   48  23  37 E12G20    30.04S
WHEATON        CLOUDY    46  30  53 NE9       30.07R
MORRIS         DRIZZLE   43  34  70 SE7       30.04R
ALEXANDRIA     CLOUDY    46  25  43 E12       30.04R
ELBOW LAKE     CLOUDY    44  26  48 NE8       30.05R
WADENA         MOSUNNY   48  21  34 NE10      30.03F
GLENWOOD       DRIZZLE   43  32  65 NE9G16    30.04R
APPLETON       LGT SNOW  34  32  93 N5        30.05R WCI  30
BENSON         LGT SNOW  34  32  93 NE3       30.05R
ORTONVILLE     LGT RAIN  34  30  86 CALM      30.05S
MADISON        SNOW      34  34 100 N7        30.04S VSB 1/2 WCI  28
WILLMAR        LGT SNOW  36  34  93 N7        30.03S
$$
MNZ033>034-036-042>043-049>051-058-059-281900-
   Central Minnesota

CITY           SKY/WX    TMP DP  RH WIND       PRES   REMARKS
ST CLOUD       LGT RAIN  44  28  53 E7        30.03R
6HR MIN TEMP:  37; 6HR MAX TEMP:  44; 6HR PCP: TRACE;

SAUK CENTRE    LGT RAIN  43  30  58 NE9       30.04R
PAYNESVILLE    LGT RAIN  38  35  90 NE9       30.03S
AITKIN         MOSUNNY   57  12  17 NE15G23   30.02F
PINE RIVER     MOSUNNY   52  27  37 E12G17    30.08S
BRAINERD       CLOUDY    50  19  29 E9G20     30.04S
STAPLES        PTSUNNY   48  18  29 E9        30.04S
LONG PRAIRIE   CLOUDY    45  28  53 NE9       30.03S
LITTLE FALLS   CLOUDY    46  28  49 E8        30.03S
LITCHFIELD     DRIZZLE   39  39 100 NE8       30.01S
BUFFALO        CLOUDY    40  35  81 NE10      30.02S
MAPLE LAKE     CLOUDY    41  37  87 NE9       30.02S
HUTCHINSON     CLOUDY    39  38  95 NE12      30.01R FOG
$$
MNZ037-044-045-052-053-281900-
   East Central Minnesota

CITY           SKY/WX    TMP DP  RH WIND       PRES   REMARKS
PRINCETON      LGT RAIN  45  34  65 NE9       30.04R
MORA           CLOUDY    48  27  43 E5        30.04S
CAMBRIDGE      LGT RAIN  46  34  61 E5        30.02R
RUSH CITY      CLOUDY    48  26  43 CALM      30.03S
MOOSE LAKE     PTSUNNY   46  30  53 NE8       30.04S
HINCKLEY       CLOUDY    54  27  35 N9        30.02S
CLOQUET        CLOUDY    45  21  39 E10G17    30.06S
MCGREGOR       PTSUNNY   54  23  30 E17G26    30.05S
$$
MNZ071>073-080-081-089-090-097-098-281900-
   Southwest Minnesota

CITY           SKY/WX    TMP DP  RH WIND       PRES   REMARKS
MONTEVIDEO     LGT SNOW  34  34 100 NE7       30.05R VSB 1   WCI  28
GRANITE FALLS  LGT SNOW  35  34  96 N9        30.03S WCI  28
CANBY          LGT RAIN  38  37  96 E9        30.04R
MARSHALL       CLOUDY    38  34  85 E10       30.01R
REDWOOD FALLS  CLOUDY    39  34  82 NE10      30.00R
OLIVIA         LGT RAIN  36  34  93 NE10      30.00R
PIPESTONE      CLOUDY    37  36  93 NE9       29.97R
WINDOM         CLOUDY    39  37  93 N10       29.96R
WORTHINGTON    CLOUDY    39  36  89 N10       29.95R
JACKSON        LGT RAIN  41  36  81 NE12      29.95R
TRACY          CLOUDY    39  36  87 NE9       29.99R
SLAYTON        CLOUDY    37  37  97 NE9       29.97R
$$
MNZ065>067-074>077-082>085-091>093-281900-
   South Central Minnesota

CITY           SKY/WX    TMP DP  RH WIND       PRES   REMARKS
MANKATO        CLOUDY    39  34  81 NE13      29.96S
NEW ULM        DRIZZLE   37  37 100 NE10      29.98R
ST JAMES       CLOUDY    34  34 100 NE10      29.97R FOG     WCI  26
FAIRMONT       CLOUDY    39  30  70 NE13      29.94R
GLENCOE        CLOUDY    40  38  95 E9        29.99R
OWATONNA       CLOUDY    41  34  75 NE10      29.95R
WASECA         CLOUDY    39  34  81 NE9G18    29.96R
$$
MNZ078>079-086>088-094>096-281900-
   Southeast Minnesota

CITY           SKY/WX    TMP DP  RH WIND       PRES   REMARKS
ROCHESTER      CLOUDY    41  35  79 NE15      29.94R
6HR MIN TEMP:  37; 6HR MAX TEMP:  42; 6HR PCP:  0.02;

RED WING       CLOUDY    43  32  65 E12G20    29.97S
STANTON        CLOUDY    41  35  77 E10       29.96R
DODGE CENTER   CLOUDY    39  34  81 E15       29.94R
WINONA         DRIZZLE   41  34  75 E9        29.97R
AUSTIN         CLOUDY    43  36  75 E10       29.92R
PRESTON        CLOUDY    42  33  71 E12       29.92S
$$
ABBREVIATIONS USED IN REMARKS
   TC - TEMPERATURES IN CELSIUS
  WCI - WIND CHILL INDEX
   HX - HEAT INDEX
  VSB - VISIBILITY
$$




USA.gov is the U.S. government's official web portal to all federal, state and local government web resources and services.